SIA929 WARR-WSSS

Flight info

Callsign SIA929
Flight time N/A
Altitude 40000
Route RAMPY M635 SUMDI/N0480F430 M635 SURGA T23 UGEBO UGEBO1A
Aircraft A359/H-SDE2E3GHIJ3J4J5LM1ORWXY/LB1D1

Departure

Time 2026-04-28 12:39
Airport Juanda International Airport (WARR)

Arrival

Time N/A
Airport Singapore Changi Airport (WSSS)
Time Latitude Longitude Altitude Speed Heading
2026-04-28 12:25 -7.38318 112.77821 15 ft 0 kts 189°
2026-04-28 12:27 -7.38309 112.77822 18 ft 2 kts 185°
2026-04-28 12:27 -7.38293 112.77824 17 ft 2 kts 186°
2026-04-28 12:28 -7.38276 112.77826 17 ft 2 kts 181°
2026-04-28 12:28 -7.38260 112.77825 16 ft 2 kts 165°
2026-04-28 12:28 -7.38246 112.77816 17 ft 2 kts 111°
2026-04-28 12:28 -7.38244 112.77808 19 ft 1 kts 102°
2026-04-28 12:32 -7.38248 112.77835 18 ft 7 kts 99°
2026-04-28 12:32 -7.38257 112.77887 15 ft 8 kts 99°
2026-04-28 12:33 -7.38235 112.77933 15 ft 8 kts 35°
2026-04-28 12:33 -7.38170 112.77950 15 ft 11 kts
2026-04-28 12:33 -7.38092 112.77961 15 ft 9 kts
2026-04-28 12:33 -7.38050 112.77921 15 ft 10 kts 284°
2026-04-28 12:34 -7.38038 112.77844 15 ft 13 kts 279°
2026-04-28 12:34 -7.38023 112.77746 15 ft 16 kts 279°
2026-04-28 12:34 -7.38004 112.77627 15 ft 19 kts 279°
2026-04-28 12:34 -7.37981 112.77490 15 ft 21 kts 279°
2026-04-28 12:35 -7.37964 112.77379 15 ft 14 kts 278°
2026-04-28 12:35 -7.37945 112.77311 15 ft 6 kts 300°
2026-04-28 12:35 -7.37906 112.77291 15 ft 8 kts 351°
2026-04-28 12:35 -7.37859 112.77303 15 ft 4 kts 30°
2026-04-28 12:36 -7.37858 112.77303 15 ft 0 kts 31°
2026-04-28 12:37 -7.37846 112.77312 15 ft 5 kts 38°
2026-04-28 12:37 -7.37814 112.77347 15 ft 8 kts 49°
2026-04-28 12:38 -7.37783 112.77392 15 ft 7 kts 70°
2026-04-28 12:38 -7.37784 112.77452 16 ft 10 kts 97°
2026-04-28 12:38 -7.37807 112.77584 15 ft 46 kts 100°
2026-04-28 12:38 -7.37903 112.78192 15 ft 126 kts 99°
2026-04-28 12:39 -7.38078 112.79252 260 ft 170 kts 99°
2026-04-28 12:39 -7.38303 112.80531 614 ft 204 kts 98°
2026-04-28 12:39 -7.38534 112.82006 1098 ft 224 kts 99°
2026-04-28 12:39 -7.38777 112.83660 1614 ft 253 kts 98°
2026-04-28 12:40 -7.39053 112.85452 2657 ft 260 kts 99°
2026-04-28 12:40 -7.39339 112.87239 3973 ft 258 kts 99°
2026-04-28 12:40 -7.39636 112.89025 4912 ft 261 kts 99°
2026-04-28 12:40 -7.39913 112.90852 5744 ft 266 kts 96°
2026-04-28 12:41 -7.39689 112.92701 6614 ft 271 kts 69°
2026-04-28 12:41 -7.38711 112.94329 7454 ft 275 kts 54°
2026-04-28 12:41 -7.37555 112.95850 8338 ft 279 kts 53°
2026-04-28 12:41 -7.36356 112.97410 9223 ft 284 kts 53°
2026-04-28 12:42 -7.35148 112.99002 10094 ft 289 kts 53°
2026-04-28 12:42 -7.33899 113.00664 10570 ft 308 kts 54°
2026-04-28 12:42 -7.32564 113.02451 10918 ft 329 kts 54°
2026-04-28 12:42 -7.31160 113.04332 11405 ft 343 kts 54°
2026-04-28 12:43 -7.29714 113.06272 12113 ft 348 kts 54°
2026-04-28 12:43 -7.28249 113.08224 12855 ft 352 kts 53°
2026-04-28 12:43 -7.26539 113.10020 13578 ft 359 kts 40°
2026-04-28 12:43 -7.24403 113.11268 14213 ft 365 kts 22°
2026-04-28 12:44 -7.21948 113.11976 14865 ft 369 kts 14°
2026-04-28 12:44 -7.19432 113.12544 15508 ft 373 kts 13°
2026-04-28 12:44 -7.16883 113.13120 16145 ft 377 kts 14°
2026-04-28 12:44 -7.14313 113.13711 16776 ft 381 kts 14°
2026-04-28 12:45 -7.11721 113.14313 17427 ft 384 kts 14°
2026-04-28 12:45 -7.09108 113.14922 18057 ft 387 kts 13°
2026-04-28 12:45 -7.06466 113.15539 18582 ft 391 kts 13°
2026-04-28 12:45 -7.03803 113.16162 19132 ft 394 kts 13°
2026-04-28 12:46 -7.01154 113.16783 19671 ft 398 kts 13°
2026-04-28 12:46 -6.98450 113.17417 20220 ft 401 kts 14°
2026-04-28 12:46 -6.95726 113.18055 20780 ft 404 kts 14°
2026-04-28 12:46 -6.92974 113.18700 21347 ft 408 kts 14°
2026-04-28 12:47 -6.90199 113.19351 21906 ft 411 kts 14°
2026-04-28 12:47 -6.87395 113.20008 22479 ft 414 kts 14°
2026-04-28 12:47 -6.84575 113.20669 23034 ft 418 kts 14°
2026-04-28 12:47 -6.81733 113.21335 23550 ft 422 kts 14°
2026-04-28 12:48 -6.78864 113.22007 24000 ft 425 kts 14°
2026-04-28 12:48 -6.76016 113.22674 24464 ft 428 kts 14°
2026-04-28 12:48 -6.73108 113.23356 24957 ft 431 kts 14°
2026-04-28 12:48 -6.70177 113.24042 25474 ft 434 kts 14°
2026-04-28 12:49 -6.67225 113.24733 26001 ft 437 kts 14°
2026-04-28 12:49 -6.64250 113.25430 26539 ft 440 kts 14°
2026-04-28 12:49 -6.61264 113.26129 27069 ft 443 kts 14°
2026-04-28 12:49 -6.58254 113.26834 27597 ft 446 kts 14°
2026-04-28 12:50 -6.55248 113.27538 28099 ft 450 kts 14°
2026-04-28 12:50 -6.52191 113.28254 28618 ft 454 kts 14°
2026-04-28 12:50 -6.49103 113.28981 29124 ft 457 kts 14°
2026-04-28 12:50 -6.46027 113.29702 29372 ft 455 kts 14°
2026-04-28 12:51 -6.42914 113.30428 29718 ft 462 kts 14°
2026-04-28 12:51 -6.39774 113.31161 30164 ft 465 kts 14°
2026-04-28 12:51 -6.36614 113.31890 30600 ft 467 kts 13°
2026-04-28 12:51 -6.33382 113.32366 31010 ft 472 kts
2026-04-28 12:52 -6.30096 113.32311 31413 ft 476 kts 355°
2026-04-28 12:52 -6.26877 113.31696 31816 ft 479 kts 345°
2026-04-28 12:52 -6.23747 113.30517 32219 ft 483 kts 335°
2026-04-28 12:52 -6.20840 113.28798 32605 ft 487 kts 325°
2026-04-28 12:53 -6.18257 113.26587 32983 ft 491 kts 315°
2026-04-28 12:53 -6.16075 113.23929 33341 ft 495 kts 305°
2026-04-28 12:53 -6.14251 113.20980 33666 ft 499 kts 303°
2026-04-28 12:53 -6.12298 113.18096 33985 ft 500 kts 307°
2026-04-28 12:54 -6.10231 113.15274 34258 ft 502 kts 308°
2026-04-28 12:54 -6.08102 113.12475 34536 ft 505 kts 309°
2026-04-28 12:54 -6.06720 113.10686 34756 ft 504 kts 309°